Regional Weather Roundup
Issued by NWS Bismarck, ND

Home | Current Version | Previous Version | Text Only | Print | Product List | Glossary On
Versions: 1 2 3 4 5 6 7 8 9 10 11 12 13 14 15 16 17 18 19 20 21 22 23 24 25 26 27 28 29 30 31 32 33 34 35 36 37 38 39 40 41 42 43 44 45 46 47 48 49 50
000
ASUS43 KBIS 190610
RWRBIS

NWR BROADCAST TEXT
NATIONAL WEATHER SERVICE BISMARCK ND
100 AM CDT FRI SEP 19 2014

NOTE: "FAIR" INDICATES FEW OR NO CLOUDS BELOW 12,000 FEET WITH NO
SIGNIFICANT WEATHER AND/OR OBSTRUCTIONS TO VISIBILITY.


CITY           SKY/WX    TMP DP  RH WIND       PRES   REMARKS
WILLISTON      CLOUDY    67  53  61 SW5       29.61S
MINOT          CLOUDY    72  61  68 S13       29.57R
MINOT AFB      CLOUDY    72  61  68 W3        29.56R
BISMARCK       MOCLDY    69  61  75 S7        29.67S
DICKINSON      CLOUDY    69  55  60 W17G24    29.68F
GARRISON         N/A     68  65  90 SW9       29.62S
HETTINGER ARPT CLOUDY    67  57  70 W16       29.74F
JAMESTOWN      CLOUDY    65  57  75 S15       29.69F
BEACH            N/A     68  54  60 SW12      29.71F
CARRINGTON     FAIR      64  64 100 S14       29.66F
CROSBY         FAIR      63  55  77 S13       29.56F
HARVEY         FAIR      68  61  77 S13G24    29.62S
HAZEN          FAIR      68  63  83 SW9       29.64F
LINTON         FAIR      66  61  82 SE6       29.69R
MANDAN         FAIR      66  59  77 S10       29.68S
OAKES            N/A     66  59  77 S23G31    29.73F
RUGBY          FAIR      68  63  83 S9        29.59F
STANLEY        FAIR      63  55  77 S6        29.61S
TIOGA          FAIR      66  52  59 SW12      29.63S
WATFORD CITY   FAIR      64  54  68 SW10      29.61S
$$

CITY           SKY/WX    TMP DP  RH WIND       PRES   REMARKS
GRAND FORKS    CLOUDY    67  57  70 S21G30    29.66S
GRAND FORKS AF CLOUDY    68  59  73 SW22G31   29.65F
DEVILS LAKE    CLOUDY    70  57  64 S22G30    29.60S
FARGO          CLOUDY    66  55  67 S15G24    29.76R
CANDO          FAIR      66  59  77 S12       29.60F
CAVALIER       FAIR      68  61  77 S14G21    29.58R
GRAFTON        FAIR      66  59  77 S22       29.60F
GWINNER        CLEAR     66  57  72 S15       29.76F
LANGDON        FAIR      68  59  73 SW24G31   29.60R
ROLLA          FAIR      68  63  83 SW16G24   29.57S
WALHALLA         N/A     72  64  78 S17G25    29.56R
$$

CITY           SKY/WX    TMP DP  RH WIND       PRES   REMARKS
ABERDEEN       MOCLDY    66  57  72 S17G25    29.76F
MOBRIDGE       CLOUDY    66  61  84 SE15      29.67F
BUFFALO          N/A     68  54  60 W13       29.71S
RAPID CITY     MOCLDY    69  58  67 NW13G22   29.73R
GLASGOW        CLOUDY    65  52  62 S6        29.61F
SIDNEY         CLOUDY    61  54  77 S9        29.64F
WOLF POINT     CLOUDY    59  54  83 CALM      29.62F
GLENDIVE       CLOUDY    66  54  63 S12       29.69F
MILES CITY     CLOUDY    64  53  67 SW10      29.72R
BAKER          CLOUDY    68  55  63 SW15      29.71F
$$

CITY           SKY/WX    TMP DP  RH WIND       PRES   REMARKS
BILLINGS       CLOUDY    64  55  72 W15G25    29.79F
GREAT FALLS    MOCLDY    58  44  60 SW12      29.77R
REGINA         MOCLDY    59  54  82 NW2       29.53F
ESTEVAN        CLOUDY    61  55  82 SW6       29.55S
$$



USA.gov is the U.S. government's official web portal to all federal, state and local government web resources and services.